Regional Weather Roundup
Issued by NWS

Home | Current Version | Previous Version | Graphics & Text | Print | Product List | Glossary On
Versions: 1 2 3 4 5 6 7 8 9 10 11 12 13 14 15 16 17 18 19 20 21 22 23 24 25 26 27 28 29 30 31 32 33 34 35 36 37 38 39 40 41 42 43 44 45 46 47 48 49 50
000
ASUS43 KDTX 262310
RWRMI
MICHIGAN HOURLY REGIONAL WEATHER ROUNDUP
NATIONAL WEATHER SERVICE DETROIT/PONTIAC MI
700 PM EDT SUN APR 26 2015

NOTE: "FAIR" INDICATES FEW OR NO CLOUDS BELOW 12,000 FEET WITH NO
SIGNIFICANT WEATHER AND/OR OBSTRUCTION TO VISIBILITY.

MIZ047>049-052>055-059>063-066>070-074>076-081>083-270000-
SOUTHEAST LOWER MICHIGAN

CITY           SKY/WX    TMP DP  RH WIND       PRES   REMARKS
ADRIAN         PTSUNNY   56  29  35 NE15      29.89S
ALMA           CLOUDY    56  25  30 N9        29.91S
ANN ARBOR      SUNNY     56  27  32 N14       29.89S
BAD AXE        SUNNY     46  33  60 NE12G18   29.93S
DETROIT CITY   PTSUNNY   50  33  52 E9        29.90S
DETROIT        PTSUNNY   56  29  35 N12       29.89S
FLINT          CLOUDY    55  28  35 N13       29.91S
GROSSE ILE     PTSUNNY   54  34  47 NE12      29.88R
HILLSDALE      MOSUNNY   56  27  33 N10       29.89S
HOWELL         PTSUNNY   54  28  36 N7        29.89S

CITY           SKY/WX    TMP DP  RH WIND       PRES   REMARKS
JACKSON        CLOUDY    57  27  31 NE10      29.89F
LAMBERTVILLE   PTSUNNY   55  28  35 N9        29.89R
LANSING        CLOUDY    56  27  32 N13       29.90F
LAPEER         NOT AVBL
MASON          PTSUNNY   55  27  34 N10G17    29.89S
MONROE         CLOUDY    55  30  38 CALM      29.87S
MT. CLEMENS    MOSUNNY   51  33  50 NE8       29.87F
PONTIAC        MOSUNNY   53  28  38 N13       29.88F
PORT HOPE        N/A     43  36  76 N20       29.91F
PORT HURON     MOSUNNY   46  30  53 NE14      29.91F
TRI CITIES     CLOUDY    49  33  54 NE14      29.93R
YPSILANTI      MOSUNNY   59  27  29 N14G23    29.89S
$$
MIZ043>046-050>051-056>058-064>065-071>073-077>080-270000-
SOUTHWEST LOWER MICHIGAN

CITY           SKY/WX    TMP DP  RH WIND       PRES   REMARKS
BATTLE CREEK   CLOUDY    57  28  33 N8        29.90F
BENTON HARBOR  SUNNY     45  29  53 N8G20     29.97S
BIG RAPIDS     MOSUNNY   53  27  37 N14G22    29.94R
COLDWATER      SUNNY     55  27  33 N12G20    29.90S
HOLLAND        SUNNY     54  29  38 NW13G21   29.95F
GRAND RAPIDS   PTSUNNY   57  28  33 NW20      29.91S
KALAMAZOO      SUNNY     57  30  35 NW15      29.92R
MARSHALL       PTSUNNY   56  28  35 NW7       29.89S
MUSKEGON       MOSUNNY   55  24  30 N18       29.96S
$$
MIZ016>042-270000-
NORTHERN LOWER MICHIGAN

CITY           SKY/WX    TMP DP  RH WIND       PRES   REMARKS
ALPENA         PTSUNNY   50  32  50 N16G24    29.95F
BEAVER ISLAND  PTSUNNY   46  30  55 N8G18     30.03S
BELLAIRE       MOSUNNY   49  32  50 N9G17     30.00S
CADILLAC       SUNNY     48  30  48 N12G18    29.97R
CHARLEVOIX     PTSUNNY   43  33  68 N12       30.05R
FRANKFORT      CLEAR     50  29  43 N7G17     30.02S
GAYLORD        CLOUDY    47  30  51 VRB5      29.96S
GRAYLING       MOSUNNY   50  30  45 N15       29.96S
HARBOR SPRINGS PTSUNNY   47  31  53 NW8G18    30.00R
HOUGHTON LAKE  CLOUDY    50  28  42 N12       29.94S
MANISTEE       SUNNY     48  28  46 N9G16     30.02S
OSCODA         CLOUDY    50  32  49 N12       29.93R
PELLSTON       PTSUNNY   50  31  48 N18       30.00S
TRAVERSE CITY  MOSUNNY   49  31  49 N12       30.00R
$$
MIZ007>008-015-270000-
EASTERN UPPER MICHIGAN

CITY           SKY/WX    TMP DP  RH WIND       PRES   REMARKS
KINROSS        CLOUDY    43  32  65 NW21G29   29.98F
MACKINAC ISLAN CLOUDY    47  32  55 N14G21    30.00R
NEWBERRY       PTSUNNY   42  31  64 NW17G23   30.04S
S. S. MARIE    CLOUDY    40  31  70 NW12      30.00S
$$
MIZ004>006-011>014-085-270000-
CENTRAL UPPER MICHIGAN

CITY           SKY/WX    TMP DP  RH WIND       PRES   REMARKS
MANISTIQUE     MOSUNNY   46  31  56 N15G21    30.04S
ESCANABA       SUNNY     48  28  46 N12G21    30.06S
MENOMINEE      SUNNY     48  32  53 E17G25    30.04R
SAWYER-GWINN   SUNNY     45  28  53 N16G22    30.09
$$
MIZ001>003-009>011-084-270000-
WESTERN UPPER MICHIGAN

CITY           SKY/WX    TMP DP  RH WIND       PRES   REMARKS
IRON MOUNTAIN  SUNNY     55  26  32 N13       30.04S
HOUGHTON       SUNNY     49  27  42 NE10      30.12F
COPPER HARBOR    N/A     45  30  55 N13       30.12S
IRONWOOD       SUNNY     46  28  49 N5        30.12S
$$

ABBREVIATIONS USED IN REMARKS
   TC - TEMPERATURE IN CELSIUS
  WCI - WIND CHILL INDEX
   HX - HEAT INDEX
  VSB - VISIBILITY



USA.gov is the U.S. government's official web portal to all federal, state and local government web resources and services.